Location: Indian Hills
(32.9760°N, 85.9450°W)
Time: 23:35:04
(UTC+00:00)

Meteor 1-19 Rocket - Pass Details

Date: 09 December 2019
Orbit: 816 x 918 km, 81.2° (Epoch: 24 January)

Event Time Altitude Azimuth Distance (km) Brightness Sun altitude
Rises 00:33:50 0° 188° (S) 3,413 7.6 -23.9°
Reaches altitude 10° 00:36:16 10° 188° (S) 2,466 6.8 -24.4°
Maximum altitude 00:41:51 86° 276° (W) 841 4.1 -25.5°
Enters shadow 00:44:01 39° 4° (N) 1,231 4.9 -25.9°
